[[{"header":{"parameterUnit":"m.s-1","parameterCategory":1,"la1":30.2991,"la2":30.254,"lo1":-89.0895,"lo2":-89.0444,"dy":0.0017,"dx":0.0017,"nx":28,"ny":28,"refTime":"2024-10-06T09:00:00:Z","depth":0,"parameterNumber":2,"parameterNumberName":"U-component_of_WINDS"},"data":[0,0,0,0,0,0,0,0,0,0,0,0,0,0,0,0,0,0,0,0,0,0,0,0,0,0,0,0,0,0,0,0,0,0,0,0,0,0,0,0,0,0,0,0,0,0,0,0,0,0,0,0,0,0,0,0,0,0,-5.2177,-5.2178,0,-5.225,-5.225,-5.2251,-5.2207,-5.2205,-5.2202,-5.22,-5.2273,-5.2277,-5.2281,0,0,0,0,0,0,0,0,0,0,0,0,0,-5.1999,-5.2003,-5.2177,-5.2178,-5.2179,-5.225,-5.225,-5.2251,-5.2207,-5.2204,-5.2202,-5.22,-5.2272,-5.2277,-5.2282,0,0,0,0,0,0,0,0,0,0,0,0,0,-5.2075,-5.2004,-5.2177,-5.2165,-5.2165,-5.2249,-5.2251,-5.2252,-5.2208,-5.2204,-5.2201,-5.2198,-5.2271,-5.2276,-5.2282,-5.2382,0,0,-5.23,-5.2303,0,0,0,0,0,0,0,0,-5.207,-5.2081,-5.2166,-5.2166,-5.2166,-5.2216,-5.2215,-5.2295,-5.2208,-5.2191,-5.22,-5.2197,-5.2257,-5.2264,-5.2284,-5.2385,-5.2388,-5.2301,-5.2304,-5.2307,-5.2308,0,0,0,0,0,0,0,-5.2065,-5.2078,-5.2206,-5.2167,-5.2167,-5.2156,-5.2163,-5.223,-5.2241,-5.2193,-5.219,-5.2199,-5.2256,-5.2279,-5.2285,-5.2389,-5.23,-5.2306,-5.2309,-5.2312,-5.2578,-5.2581,0,0,0,0,0,0,-5.2061,-5.2074,-5.2203,-5.2208,-5.211,-5.2162,-5.217,-5.2203,-5.224,-5.2243,-5.2201,-5.2196,-5.227,-5.2279,-5.2288,-5.2408,-5.2307,-5.2312,-5.2315,-5.2574,-5.2578,-5.2582,0,0,0,0,0,0,-5.2057,-5.2073,-5.22,-5.214,-5.2155,-5.2168,-5.2206,-5.2206,-5.2228,-5.2247,-5.2248,-5.2222,-5.2268,-5.228,-5.2359,-5.241,-5.2315,-5.232,-5.257,-5.2576,-5.258,-5.2649,0,0,0,0,0,0,-5.2053,-5.2072,-5.211,-5.2141,-5.2159,-5.2271,-5.2209,-5.221,-5.2239,-5.2233,-5.2267,-5.2269,-5.2266,-5.2351,-5.2365,-5.2417,-5.2325,-5.2565,-5.2572,-5.2579,-5.2643,-5.2656,-5.2668,0,0,0,0,0,-5.2046,-5.2126,-5.2112,-5.2128,-5.2207,-5.2274,-5.2284,-5.2279,-5.2243,-5.2282,-5.2294,-5.2268,-5.2402,-5.2359,-5.2375,-5.2429,-5.2562,-5.257,-5.2578,-5.2637,-5.2654,-5.2668,0,0,0,0,0,0,-5.2099,-5.2129,-5.2115,-5.2207,-5.2238,-5.2266,-5.2314,-5.2297,-5.2339,-5.2331,-5.2323,-5.2331,-5.2415,-5.243,-5.2381,-5.2528,-5.2477,-5.2488,-5.2516,-5.2532,-5.2544,-5.2539,-5.233,0,0,0,0,0,-5.2121,-5.2174,-5.2197,-5.2276,-5.2293,-5.2301,-5.233,-5.2324,-5.2356,-5.2369,-5.2387,-5.2419,-5.2468,-5.25,-5.2547,-5.2644,-5.2652,-5.2689,-5.2702,-5.2713,-5.2723,-5.2777,-5.2795,-5.2609,-5.2609,-5.2608,0,0,-5.2168,-5.2191,-5.2224,-5.2287,-5.2311,-5.2366,-5.2312,-5.2372,-5.2413,-5.2378,-5.2455,-5.2469,-5.2504,-5.2594,-5.2634,-5.2609,-5.2776,-5.2723,-5.2731,-5.2736,-5.2787,-5.2805,-5.2821,-5.2614,-5.2613,-5.2612,0,0,-5.2281,-5.2303,-5.2372,-5.2398,-5.2435,-5.244,-5.2457,-5.2488,-5.2496,-5.2574,-5.2549,-5.2597,-5.2682,-5.2709,-5.2733,-5.2859,-5.2838,-5.2874,-5.2941,-5.2994,-5.3009,-5.3022,-5.3068,-5.3085,-5.2884,-5.2884,-5.2884,0,-5.2334,-5.2415,-5.241,-5.2472,-5.2501,-5.2473,-5.2543,-5.2568,-5.2618,-5.2639,-5.2609,-5.2717,-5.2738,-5.2835,-5.2866,-5.2886,-5.2906,-5.287,-5.3007,-5.302,-5.3032,-5.3076,-5.3094,-5.2888,-5.2888,-5.2887,-5.2887,0,-5.248,-5.2537,-5.2588,-5.2639,-5.2673,-5.2739,-5.2743,-5.2779,-5.277,-5.2779,-5.2859,-5.2884,-5.2936,-5.2958,-5.2949,-5.3054,-5.3037,-5.3008,-5.2956,-5.3055,-5.3096,-5.3112,-5.2895,-5.2893,-5.2892,-5.2891,0,0,-5.2627,-5.2675,-5.2694,-5.2717,-5.2757,-5.2801,-5.2866,-5.2918,-5.2949,-5.2985,-5.304,-5.3113,-5.3087,-5.3115,-5.311,-5.3156,-5.3256,-5.3121,-5.3122,-5.3147,-5.3375,-5.3397,-5.3417,-5.3242,-5.3245,-5.3248,-5.3372,0,-5.2743,-5.2858,-5.2855,-5.2962,-5.3015,-5.299,-5.3047,-5.3078,-5.3088,-5.3135,-5.3145,-5.3198,-5.3159,-5.3176,-5.3221,-5.3234,-5.3302,-5.3225,-5.3294,-5.3297,-5.3287,-5.3438,-5.3462,-5.3578,-5.3388,-5.3391,-5.3393,0,-5.2894,-5.2937,-5.3049,-5.3083,-5.3105,-5.3156,-5.3204,-5.3249,-5.3284,-5.3288,-5.3321,-5.3308,-5.3375,-5.3321,-5.3413,-5.3361,-5.3389,-5.34,-5.3405,-5.3412,-5.3351,-5.345,-5.3614,-5.3632,-5.3418,-5.3416,-5.3414,0,-5.2992,-5.3077,-5.3156,-5.3176,-5.3217,-5.3254,-5.3273,-5.3304,-5.3336,-5.3378,-5.3399,-5.3448,-5.3475,-5.3513,-5.3515,-5.3475,-5.3609,-5.3554,-5.3615,-5.3615,-5.3644,-5.3643,-5.3817,-5.3661,-5.3661,-5.366,-5.366,0,-5.3123,-5.3193,-5.3201,-5.3249,-5.3327,-5.3324,-5.3401,-5.3416,-5.3445,-5.3496,-5.3477,-5.3525,-5.3524,-5.3574,-5.3575,-5.3652,-5.3664,-5.367,-5.367,-5.3672,-5.3672,-5.3691,-5.3684,-5.3665,-5.3664,-5.3663,-5.3662,0,-5.3246,-5.3254,-5.3338,-5.337,-5.338,-5.3437,-5.3464,-5.3511,-5.3519,-5.3585,-5.36,-5.3614,-5.3671,-5.3677,-5.3743,-5.3744,-5.3838,-5.3828,-5.3827,-5.3825,-5.3886,-5.3881,-5.4079,-5.4106,-5.3932,-5.3933,-5.3935,0,-5.3329,-5.3383,-5.3422,-5.3455,-5.3476,-5.353,-5.3563,-5.3562,-5.3597,-5.3642,-5.3683,-5.3739,-5.3783,-5.3877,-5.3893,-5.3944,-5.3936,-5.4002,-5.3944,-5.3945,-5.3939,-5.3936,-5.3942,-5.4014,-5.4016,-5.4017,-5.4018,0,-5.3477,-5.3479,-5.3527,-5.3578,-5.3618,-5.3658,-5.3695,-5.3723,-5.3727,-5.3767,-5.3826,-5.3861,-5.393,-5.3986,-5.4037,-5.4056,-5.4039,-5.4037,-5.4054,-5.4057,-5.4055,-5.4059,-5.3859,-5.4032,-5.4031,-5.403,-5.4029,-5.4029,-5.3583,-5.3631,-5.3666,-5.3721,-5.3749,-5.3785,-5.3831,-5.3846,-5.3895,-5.3952,-5.3948,-5.4014,-5.4049,-5.4115,-5.4138,-5.419,-5.4168,-5.4192,-5.4198,-5.4205,-5.4212,-5.4046,-5.4199,-5.4199,-5.4198,-5.4198,-5.4198,0,-5.3731,-5.3753,-5.3804,-5.3857,-5.3901,-5.3882,-5.3922,-5.396,-5.4018,-5.4053,-5.4098,-5.4166,-5.4221,-5.4242,-5.4296,-5.4334,-5.4327,-5.4348,-5.4346,-5.4351,-5.4227,-5.4208,-5.4352,-5.4352,-5.4352,-5.4352,-5.4352,-5.4352,-5.3814,-5.3893,-5.3899,-5.3993,-5.4014,-5.4079,-5.4104,-5.4137,-5.4165,-5.4243,-5.4289,-5.4302,-5.4332,-5.4388,-5.4438,-5.4442,-5.4464,-5.4488,-5.449,-5.4375,-5.4359,-5.4344,-5.4326,-5.4493,-5.4493,-5.4609,-5.461,-5.4611]},{"header":{"parameterUnit":"m.s-1","parameterCategory":1,"la1":30.2991,"la2":30.254,"lo1":-89.0895,"lo2":-89.0444,"dy":0.0017,"dx":0.0017,"nx":28,"ny":28,"refTime":"2024-10-06T09:00:00:Z","depth":0,"parameterNumber":3,"parameterNumberName":"V-component_of_WINDS"},"data":[0,0,0,0,0,0,0,0,0,0,0,0,0,0,0,0,0,0,0,0,0,0,0,0,0,0,0,0,0,0,0,0,0,0,0,0,0,0,0,0,0,0,0,0,0,0,0,0,0,0,0,0,0,0,0,0,0,0,-4.1001,-4.1,0,-4.0959,-4.0959,-4.0958,-4.0874,-4.0872,-4.087,-4.0869,-4.0828,-4.0829,-4.0829,0,0,0,0,0,0,0,0,0,0,0,0,0,-4.1008,-4.1008,-4.1001,-4.1,-4.1,-4.0959,-4.0959,-4.0958,-4.0874,-4.0872,-4.087,-4.0868,-4.0828,-4.0828,-4.0829,0,0,0,0,0,0,0,0,0,0,0,0,0,-4.099,-4.1009,-4.1001,-4.0953,-4.0948,-4.0959,-4.0959,-4.0958,-4.0875,-4.0872,-4.0869,-4.0867,-4.0828,-4.0828,-4.0829,-4.0884,0,0,-4.0831,-4.0832,0,0,0,0,0,0,0,0,-4.0991,-4.099,-4.096,-4.0956,-4.0951,-4.0919,-4.0946,-4.0933,-4.0875,-4.0903,-4.0869,-4.0866,-4.086,-4.0858,-4.0856,-4.0882,-4.088,-4.0831,-4.0832,-4.0832,-4.0832,0,0,0,0,0,0,0,-4.0992,-4.0991,-4.0984,-4.096,-4.0954,-4.0934,-4.0928,-4.0943,-4.0896,-4.09,-4.0894,-4.089,-4.0857,-4.0856,-4.0855,-4.088,-4.0831,-4.0832,-4.0832,-4.0833,-4.0948,-4.0951,0,0,0,0,0,0,-4.1,-4.0993,-4.0985,-4.0983,-4.0965,-4.0936,-4.093,-4.0932,-4.0896,-4.0888,-4.0892,-4.0886,-4.0856,-4.0854,-4.0853,-4.0915,-4.0832,-4.0833,-4.0833,-4.0946,-4.0949,-4.0952,0,0,0,0,0,0,-4.1001,-4.1001,-4.0987,-4.0986,-4.0983,-4.0938,-4.0941,-4.0932,-4.093,-4.089,-4.0881,-4.0899,-4.0854,-4.0852,-4.0877,-4.0912,-4.0833,-4.0834,-4.0943,-4.0947,-4.095,-4.1039,0,0,0,0,0,0,-4.1001,-4.1001,-4.1022,-4.0987,-4.0983,-4.1012,-4.0944,-4.0933,-4.0932,-4.0924,-4.0894,-4.0887,-4.0851,-4.0876,-4.0877,-4.0912,-4.0834,-4.0939,-4.0944,-4.0949,-4.1033,-4.1045,-4.1056,0,0,0,0,0,-4.1002,-4.1049,-4.1023,-4.1023,-4.1007,-4.1014,-4.1012,-4.097,-4.0935,-4.0955,-4.0929,-4.0888,-4.0908,-4.0879,-4.088,-4.0915,-4.0937,-4.0943,-4.0949,-4.1027,-4.1043,-4.1056,0,0,0,0,0,0,-4.1089,-4.1043,-4.1014,-4.1051,-4.1037,-4.1,-4.1024,-4.0988,-4.0984,-4.0976,-4.0925,-4.0919,-4.0951,-4.0935,-4.0904,-4.0966,-4.0916,-4.0922,-4.0975,-4.099,-4.1001,-4.1005,-4.0835,0,0,0,0,0,-4.1113,-4.1121,-4.1081,-4.1117,-4.1112,-4.1069,-4.1071,-4.1039,-4.1023,-4.1017,-4.0992,-4.0978,-4.0981,-4.0984,-4.0985,-4.103,-4.1022,-4.1054,-4.1066,-4.1076,-4.1082,-4.1104,-4.1118,-4.0971,-4.0971,-4.0971,0,0,-4.1161,-4.1137,-4.1146,-4.1134,-4.112,-4.113,-4.1065,-4.1079,-4.1086,-4.1019,-4.1041,-4.1023,-4.1003,-4.1038,-4.1053,-4.1026,-4.1121,-4.1083,-4.1092,-4.1092,-4.1112,-4.1126,-4.1138,-4.0975,-4.0974,-4.0974,0,0,-4.1255,-4.1238,-4.1266,-4.1253,-4.1231,-4.1202,-4.1209,-4.1177,-4.1162,-4.1183,-4.1133,-4.1141,-4.1147,-4.1136,-4.1131,-4.122,-4.1182,-4.1221,-4.1284,-4.1306,-4.1317,-4.1327,-4.1359,-4.1371,-4.1228,-4.1228,-4.1228,0,-4.1319,-4.1332,-4.1286,-4.1303,-4.1299,-4.1237,-4.1266,-4.1255,-4.1235,-4.1234,-4.1205,-4.1211,-4.1194,-4.1225,-4.1247,-4.1245,-4.1251,-4.1225,-4.1319,-4.1329,-4.1338,-4.1367,-4.138,-4.1233,-4.1232,-4.1232,-4.1231,0,-4.1412,-4.1422,-4.1447,-4.1429,-4.1428,-4.145,-4.1407,-4.1412,-4.1381,-4.1355,-4.1377,-4.1354,-4.1349,-4.1354,-4.1324,-4.1381,-4.1365,-4.1329,-4.1277,-4.1357,-4.1385,-4.1396,-4.124,-4.1238,-4.1237,-4.1235,0,0,-4.1561,-4.1515,-4.1525,-4.1516,-4.1487,-4.1494,-4.1514,-4.1508,-4.1513,-4.1501,-4.1517,-4.1523,-4.1489,-4.1483,-4.1451,-4.147,-4.1542,-4.1431,-4.143,-4.1453,-4.1604,-4.1632,-4.1646,-4.1516,-4.1518,-4.152,-4.1605,0,-4.1648,-4.1679,-4.1638,-4.1678,-4.1687,-4.1628,-4.1645,-4.163,-4.1606,-4.161,-4.1584,-4.159,-4.1544,-4.154,-4.1556,-4.153,-4.1572,-4.1523,-4.1531,-4.1532,-4.1538,-4.166,-4.169,-4.1772,-4.1616,-4.1617,-4.1619,0,-4.1756,-4.1748,-4.1789,-4.1757,-4.1759,-4.1776,-4.1767,-4.1771,-4.1752,-4.1734,-4.1727,-4.1689,-4.1706,-4.1655,-4.1678,-4.1646,-4.1647,-4.1634,-4.1636,-4.1636,-4.1581,-4.1664,-4.1797,-4.181,-4.1635,-4.1634,-4.1633,0,-4.1861,-4.1861,-4.1885,-4.1879,-4.1842,-4.1855,-4.1841,-4.1819,-4.1818,-4.181,-4.1809,-4.1804,-4.1801,-4.1798,-4.1758,-4.1725,-4.1787,-4.1733,-4.1772,-4.1773,-4.1788,-4.1788,-4.1924,-4.1788,-4.1788,-4.1787,-4.1787,0,-4.1964,-4.1991,-4.1932,-4.1947,-4.1976,-4.1927,-4.1958,-4.1937,-4.1918,-4.1929,-4.1878,-4.1888,-4.1836,-4.1841,-4.181,-4.1834,-4.1833,-4.1819,-4.1811,-4.1824,-4.1826,-4.1824,-4.1818,-4.1791,-4.179,-4.1789,-4.1789,0,-4.2086,-4.2047,-4.207,-4.2033,-4.2025,-4.2048,-4.2016,-4.2029,-4.2001,-4.2015,-4.2016,-4.1973,-4.1977,-4.1937,-4.1933,-4.1912,-4.195,-4.1932,-4.1957,-4.1951,-4.1993,-4.199,-4.2133,-4.215,-4.2003,-4.2004,-4.2005,0,-4.2155,-4.2174,-4.2139,-4.2142,-4.213,-4.2136,-4.2134,-4.2087,-4.2087,-4.2067,-4.2082,-4.2081,-4.2078,-4.2086,-4.2055,-4.2051,-4.2033,-4.2083,-4.2032,-4.2044,-4.2034,-4.2033,-4.2035,-4.2094,-4.2096,-4.2098,-4.2099,0,-4.2281,-4.226,-4.226,-4.2253,-4.2252,-4.2244,-4.2233,-4.2239,-4.2187,-4.219,-4.2193,-4.219,-4.2185,-4.2185,-4.2176,-4.216,-4.2122,-4.2115,-4.2124,-4.2138,-4.2152,-4.2145,-4.1987,-4.2112,-4.2111,-4.211,-4.2109,-4.2109,-4.2379,-4.2393,-4.2371,-4.2372,-4.2358,-4.2349,-4.2359,-4.2332,-4.2333,-4.2326,-4.2298,-4.2305,-4.2285,-4.2268,-4.2256,-4.2261,-4.2237,-4.225,-4.2253,-4.2257,-4.2265,-4.2151,-4.2259,-4.2259,-4.2259,-4.2258,-4.2258,0,-4.2502,-4.2485,-4.2486,-4.2472,-4.2473,-4.2435,-4.242,-4.2423,-4.2431,-4.2415,-4.2412,-4.2415,-4.2414,-4.2383,-4.2378,-4.2389,-4.2371,-4.2389,-4.2388,-4.2385,-4.2287,-4.228,-4.2404,-4.2404,-4.2404,-4.2404,-4.2404,-4.2404,-4.2567,-4.259,-4.2567,-4.2582,-4.2564,-4.2571,-4.2566,-4.2557,-4.2544,-4.2549,-4.2548,-4.2527,-4.2505,-4.2498,-4.2496,-4.2487,-4.2488,-4.2512,-4.2497,-4.2406,-4.2392,-4.2379,-4.2372,-4.2513,-4.2513,-4.2595,-4.2596,-4.2596]}]]